TimePDT,TemperatureF,Dew PointF,Humidity,Sea Level PressureIn,VisibilityMPH,Wind Direction,Wind SpeedMPH,Gust SpeedMPH,PrecipitationIn,Events,Conditions,WindDirDegrees,DateUTC
12:56 AM,44.1,37.0,76,30.28,10.0,Calm,Calm,-,N/A,,Clear,0,2013-10-26 07:56:00
1:56 AM,43.0,37.0,80,30.28,10.0,Calm,Calm,-,N/A,,Clear,0,2013-10-26 08:56:00
2:56 AM,41.0,36.0,82,30.29,10.0,Calm,Calm,-,N/A,,Clear,0,2013-10-26 09:56:00
3:56 AM,42.1,37.0,82,30.28,10.0,Calm,Calm,-,N/A,,Clear,0,2013-10-26 10:56:00
4:56 AM,42.1,39.0,89,30.29,9.0,Calm,Calm,-,N/A,,Clear,0,2013-10-26 11:56:00
5:56 AM,39.9,37.0,89,30.30,9.0,Calm,Calm,-,N/A,,Clear,0,2013-10-26 12:56:00
6:56 AM,39.0,36.0,89,30.30,10.0,Calm,Calm,-,N/A,,Clear,0,2013-10-26 13:56:00
7:56 AM,37.9,36.0,93,30.33,10.0,Calm,Calm,-,N/A,,Clear,0,2013-10-26 14:56:00
8:56 AM,42.1,37.9,85,30.34,10.0,Calm,Calm,-,N/A,,Clear,0,2013-10-26 15:56:00
9:56 AM,46.0,39.0,76,30.33,10.0,Calm,Calm,-,N/A,,Clear,0,2013-10-26 16:56:00
10:56 AM,50.0,39.9,68,30.33,8.0,Calm,Calm,-,N/A,,Clear,0,2013-10-26 17:56:00
11:56 AM,53.1,41.0,64,30.31,6.0,North,4.6,-,N/A,,Haze,350,2013-10-26 18:56:00
12:56 PM,55.9,39.9,55,30.28,8.0,Calm,Calm,-,N/A,,Clear,0,2013-10-26 19:56:00
1:56 PM,57.9,39.9,51,30.25,9.0,Calm,Calm,-,N/A,,Clear,0,2013-10-26 20:56:00
2:56 PM,62.1,39.9,44,30.22,10.0,Calm,Calm,-,N/A,,Clear,0,2013-10-26 21:56:00
3:56 PM,63.0,39.9,43,30.20,10.0,Calm,Calm,-,N/A,,Clear,0,2013-10-26 22:56:00
4:56 PM,62.1,39.9,44,30.18,10.0,Calm,Calm,-,N/A,,Clear,0,2013-10-26 23:56:00
5:56 PM,57.9,39.9,51,30.18,10.0,Calm,Calm,-,N/A,,Clear,0,2013-10-27 00:56:00
6:56 PM,54.0,39.9,59,30.17,10.0,South,3.5,-,N/A,,Clear,180,2013-10-27 01:56:00
7:56 PM,52.0,39.9,63,30.15,10.0,South,3.5,-,N/A,,Clear,170,2013-10-27 02:56:00
8:56 PM,48.9,39.9,71,30.14,10.0,SE,3.5,-,N/A,,Clear,140,2013-10-27 03:56:00
9:56 PM,48.9,39.0,69,30.12,10.0,Calm,Calm,-,N/A,,Clear,0,2013-10-27 04:56:00
10:56 PM,45.0,37.9,76,30.11,10.0,Calm,Calm,-,N/A,,Clear,0,2013-10-27 05:56:00
11:56 PM,44.1,37.9,79,30.09,10.0,Calm,Calm,-,N/A,,Clear,0,2013-10-27 06:56:00